Theta_e
301 302 301 301 302 303 305 306 306 306 306 306 307 307 306 307 310 313 312 309 306 305 304 303 301 300 299 299 301 302 303 303 304 306 306 306 306 307 307 307 307 307 308 308 308 309 309 310 312 315 318 319 320 317 315 315 315 315 315 315 317 319 320 320 321 322 324 325 326 327 327 328 328 327
302 303 303 303 304 305 306 306 306 305 305 305 306 307 307 306 307 309 310 309 306 304 304 302 300 298 297 297 297 299 301 302 303 304 305 305 305 306 307 307 307 307 308 308 308 308 308 308 309 309 310 311 312 312 310 310 310 311 311 311 312 314 318 320 320 320 321 321 323 324 325 326 326 326
302 302 303 304 305 306 305 305 305 305 305 305 305 306 307 305 305 305 306 307 305 304 303 300 297 296 296 296 296 297 298 299 300 302 303 304 304 305 306 307 307 307 307 307 307 307 307 307 307 308 308 308 309 309 310 310 310 310 310 310 311 311 313 317 319 320 319 319 320 321 321 322 323 324
303 302 303 304 304 304 304 304 304 305 305 305 305 306 305 305 304 304 304 305 304 303 300 297 295 296 296 296 296 296 296 297 298 299 300 301 303 303 304 305 307 307 306 306 306 306 306 306 306 306 306 306 307 308 308 309 310 310 311 311 311 311 311 313 316 318 319 319 318 318 318 319 320 322
304 303 303 304 303 303 303 303 303 304 305 305 305 305 305 304 304 304 303 302 302 301 298 295 295 296 296 295 295 295 296 296 297 297 298 298 299 300 301 302 304 305 305 305 305 305 305 305 305 305 305 305 305 306 307 307 308 309 311 311 311 311 311 311 312 314 317 319 319 318 318 319 318 320
305 305 305 305 304 304 304 303 303 304 304 305 305 305 305 305 304 304 303 300 298 297 296 295 296 296 295 295 295 295 295 296 296 297 297 297 297 297 298 299 300 300 301 302 302 303 304 304 304 304 304 304 304 304 304 305 306 306 308 309 311 312 312 312 311 312 313 316 319 320 320 320 319 318
306 306 306 305 305 305 305 305 305 304 304 304 305 305 305 305 304 303 301 299 296 295 295 296 296 295 295 295 295 295 295 296 296 296 296 296 296 296 296 296 296 297 297 298 298 299 299 300 301 302 303 303 303 303 303 304 304 304 305 306 308 310 312 313 313 312 312 313 317 320 321 321 320 319
308 308 307 306 306 305 305 305 305 305 305 304 304 305 305 305 304 302 300 299 298 297 297 296 295 295 295 296 296 296 295 296 296 296 295 295 295 295 295 295 295 295 296 296 296 296 296 297 297 298 299 300 301 301 302 302 303 303 303 303 304 306 309 312 314 314 313 314 316 318 319 320 320 318
309 309 309 308 307 306 306 306 306 306 305 305 304 304 304 304 303 302 300 300 300 299 298 296 296 296 296 296 296 297 296 296 296 296 296 295 295 295 295 295 295 295 295 295 295 295 295 295 296 296 296 297 298 299 299 300 301 302 302 302 302 303 305 307 312 315 315 315 315 316 317 318 317 316
310 310 310 309 308 308 307 307 306 306 306 305 305 304 304 304 302 301 301 301 302 301 298 297 297 297 297 297 297 297 297 296 296 296 296 296 296 295 295 295 295 295 295 295 295 295 295 295 295 295 295 296 297 297 298 298 299 300 301 301 301 302 303 304 307 311 315 316 316 316 318 318 316 316
311 311 311 310 309 309 308 308 307 307 306 306 306 305 304 303 302 301 301 302 302 301 299 297 297 297 297 297 297 297 297 297 297 296 296 296 296 295 295 295 295 295 295 295 295 294 295 295 295 294 295 295 296 296 296 297 297 298 299 300 300 300 301 302 303 306 310 315 317 318 319 319 318 317
312 312 312 311 311 310 309 309 308 307 307 307 306 305 304 303 302 301 301 302 302 300 299 298 298 298 298 298 297 297 297 297 297 296 296 296 296 296 295 295 295 295 295 295 294 294 294 294 294 294 294 295 296 295 295 295 296 297 297 298 299 299 299 300 301 302 304 309 315 318 320 320 319 318
315 314 314 314 313 312 310 309 309 308 307 307 306 305 305 304 302 302 302 303 302 300 299 299 298 299 299 298 297 297 297 296 296 296 296 296 295 296 296 295 295 295 294 294 294 294 293 293 293 293 293 295 295 294 294 295 296 296 297 297 297 298 298 299 299 300 301 303 308 314 318 319 318 318
316 316 316 315 315 315 312 310 309 308 307 307 307 306 305 304 303 302 303 303 302 301 300 299 299 299 298 298 297 296 296 296 296 296 296 296 295 295 296 295 295 295 294 293 293 293 293 293 293 293 293 294 294 293 295 296 297 297 297 297 297 298 298 298 298 300 301 302 304 308 314 317 318 317
317 317 317 316 316 316 314 311 309 307 307 307 306 305 304 303 302 302 303 303 302 300 300 299 299 298 298 297 297 296 296 296 296 296 295 295 295 294 294 294 295 294 293 292 293 293 293 292 292 292 293 293 293 294 296 298 298 298 298 299 300 300 299 299 300 301 302 303 304 305 309 313 315 316
318 318 317 317 317 316 315 313 310 308 307 307 306 305 304 302 302 302 302 302 302 301 300 299 299 298 297 297 296 296 296 296 295 295 295 294 294 293 293 293 293 293 292 292 292 292 293 292 292 293 294 294 295 296 297 298 299 300 300 301 302 303 302 302 302 303 304 305 305 305 306 308 310 312
316 317 317 317 316 315 315 313 311 308 307 306 304 304 303 301 301 301 301 302 301 300 300 299 299 298 297 297 296 296 296 295 295 295 294 294 293 292 292 292 292 292 292 291 291 292 292 292 292 293 294 294 295 295 296 297 298 301 303 302 302 303 304 304 304 304 305 305 306 306 306 306 307 309
314 314 314 314 314 313 312 311 309 307 306 305 304 302 302 301 301 301 301 301 300 300 299 299 298 297 296 296 296 295 295 294 294 293 293 293 292 292 292 291 292 292 291 291 291 291 292 292 292 293 293 293 294 294 295 296 296 300 303 303 303 304 303 303 303 304 304 304 305 305 306 306 307 307
312 312 312 311 311 310 309 308 307 305 305 305 303 302 301 300 300 300 300 300 299 298 298 298 297 297 296 296 295 295 294 293 293 292 292 292 292 292 292 291 292 292 291 291 291 291 292 292 292 292 292 292 292 293 294 294 295 300 303 302 302 303 302 302 302 302 302 303 303 303 304 304 305 305
311 311 311 310 309 307 306 304 304 304 304 304 304 302 300 300 299 299 299 299 298 298 297 297 297 296 296 295 294 294 293 292 292 292 292 292 292 291 291 291 291 291 291 291 291 291 292 291 292 292 292 292 292 293 294 295 297 301 302 301 301 301 301 300 301 301 301 301 301 301 301 302 302 303
309 309 309 309 307 305 303 302 303 304 303 304 304 302 300 299 299 299 298 298 297 297 296 296 295 295 294 294 293 293 292 292 292 292 291 292 291 291 291 291 291 291 291 291 291 291 291 291 291 292 292 292 292 293 294 294 296 298 300 299 299 299 299 298 299 299 300 299 299 299 299 300 301 301
307 307 307 306 305 304 304 303 304 303 303 303 303 302 300 299 299 298 297 296 296 295 295 294 294 294 293 293 292 292 292 292 291 291 291 291 291 291 291 291 291 291 291 291 291 291 291 291 291 292 292 292 292 292 293 294 295 295 296 296 295 296 297 297 297 297 298 298 299 298 298 298 299 299
305 305 304 303 303 303 303 303 302 302 301 301 301 300 299 298 297 296 295 295 294 294 294 293 293 293 292 292 292 292 292 291 291 291 290 290 290 291 291 290 291 291 291 291 291 291 291 291 291 291 292 292 292 292 293 293 293 293 293 293 294 295 295 296 296 296 296 297 298 298 298 297 297 297
303 303 302 301 300 301 300 300 300 300 299 299 298 298 297 297 296 295 294 294 293 293 293 293 293 292 292 292 291 291 291 291 291 290 290 290 290 290 290 290 290 290 291 291 291 291 291 291 291 291 291 292 292 292 292 292 292 293 293 293 293 294 294 295 295 295 295 295 296 298 298 297 297 297
301 301 300 300 299 299 299 299 298 298 298 297 297 296 296 295 294 294 293 293 293 292 292 292 292 291 291 291 291 291 291 290 290 290 290 290 290 290 290 290 290 290 290 291 291 291 291 291 291 291 291 291 292 292 292 292 292 292 293 293 293 293 294 294 294 294 294 295 296 298 298 297 296 296
300 299 299 298 298 297 298 297 297 297 296 296 295 294 294 293 293 293 292 292 292 292 292 291 291 291 291 291 290 290 290 290 289 289 289 289 289 289 289 289 289 290 290 290 290 291 291 290 291 291 291 292 292 292 292 292 292 292 292 293 293 293 294 294 294 294 294 295 296 298 298 297 297 296
299 298 297 297 296 296 296 296 295 295 294 294 293 293 293 292 292 292 292 292 291 291 291 291 291 290 290 290 289 289 289 289 289 289 288 288 288 288 288 288 289 289 289 289 290 290 290 291 291 291 291 291 291 292 292 292 292 292 292 293 293 293 294 294 294 294 295 295 297 298 299 298 298 297
297 297 296 296 296 295 295 295 294 294 293 293 292 292 292 292 292 291 291 291 291 291 290 290 290 290 289 289 289 288 288 288 288 288 288 288 288 288 288 288 288 288 289 289 289 290 290 290 291 291 291 291 291 291 291 292 292 292 292 293 293 293 293 294 294 295 295 295 296 297 298 298 298 297
296 296 295 295 295 294 294 293 293 293 292 292 292 292 292 291 291 291 291 290 290 290 289 289 289 288 288 288 288 288 287 287 287 287 287 287 288 288 288 288 288 288 288 288 289 289 289 290 290 290 291 291 291 291 291 291 291 292 292 293 293 293 294 294 294 295 295 295 296 296 297 297 297 298
295 295 295 294 293 293 293 292 292 292 292 291 291 291 291 291 290 290 290 290 289 289 288 288 287 287 287 287 288 288 288 288 288 287 287 287 287 287 287 287 288 288 288 288 288 288 288 289 289 290 290 290 291 291 291 291 291 291 292 293 293 294 294 294 295 295 295 295 296 296 296 297 297 298
294 294 293 293 293 292 292 292 291 291 291 291 291 290 290 290 290 289 289 288 288 287 287 287 287 287 288 288 288 287 287 286 287 286 286 287 287 287 287 287 287 288 288 288 288 288 288 288 289 289 289 290 290 290 290 290 291 291 292 292 293 293 294 294 294 295 295 295 296 296 297 296 296 296
294 293 293 292 292 292 291 291 291 291 290 290 290 290 290 289 289 288 288 287 287 287 287 287 287 287 287 287 286 286 286 286 286 286 286 287 287 287 287 287 287 288 288 288 288 288 288 288 288 289 289 289 289 289 290 290 290 291 291 292 292 293 293 293 293 294 295 295 296 296 296 296 295 295
293 292 292 292 291 291 291 291 290 290 290 290 289 289 289 288 288 287 287 287 287 287 287 287 286 286 286 286 286 286 286 286 287 287 287 287 287 287 287 287 288 288 288 288 288 288 288 288 288 289 289 289 289 289 289 290 290 291 291 291 292 292 292 292 293 294 294 295 296 296 295 295 294 294
292 292 291 291 291 291 290 290 290 290 289 289 289 288 287 287 287 287 287 287 287 287 287 287 286 286 286 286 286 286 287 287 287 287 287 287 287 287 287 287 288 288 288 288 288 288 288 288 288 289 289 289 289 289 289 290 290 291 291 291 292 292 292 292 293 293 293 294 295 295 295 294 294 294
292 292 291 291 290 290 290 290 289 289 289 288 287 287 287 287 287 287 287 287 287 287 287 286 286 286 286 286 286 287 287 287 287 287 287 287 287 287 287 287 288 288 288 288 288 288 288 288 289 289 289 289 289 289 289 290 290 291 291 291 292 292 292 292 293 293 293 293 294 294 294 294 294 295
291 291 291 290 290 290 289 289 289 288 288 287 287 287 288 288 287 287 287 286 286 286 286 286 286 286 286 286 286 286 287 287 287 287 287 287 287 287 287 287 288 288 288 288 288 288 288 288 288 289 289 289 289 289 290 290 290 291 291 292 292 292 292 293 293 293 293 293 294 294 294 294 295 295
291 290 290 290 290 289 289 289 288 287 287 287 288 288 288 288 287 287 286 285 285 285 286 286 286 286 286 286 286 286 287 287 287 287 287 287 287 287 287 288 288 288 288 288 288 288 288 288 288 288 289 289 289 289 290 290 290 291 291 292 292 292 292 293 293 293 293 294 294 294 294 295 295 295
291 290 290 290 289 289 289 288 287 287 287 288 288 288 288 288 287 285 284 284 285 285 286 286 287 287 287 287 287 287 287 287 287 287 287 287 287 287 287 287 288 288 288 288 288 288 288 288 288 288 289 289 289 289 289 290 290 291 291 292 292 292 292 292 292 293 293 293 293 294 294 294 294 294
290 290 290 289 289 289 288 287 287 288 288 289 289 288 288 287 286 284 284 284 285 286 287 288 287 287 287 287 287 287 287 287 287 287 287 287 287 287 287 287 287 287 288 288 288 288 288 288 288 288 288 289 289 289 289 290 290 290 290 290 290 291 291 292 292 292 293 293 293 293 293 293 293 293
290 290 289 289 289 288 287 287 288 289 289 289 288 288 288 287 285 284 284 285 286 288 289 289 288 287 287 287 287 287 287 287 287 287 287 287 287 287 287 287 287 287 288 288 288 288 288 288 288 288 288 289 289 289 289 289 289 289 290 290 290 291 291 292 292 292 292 293 293 293 292 292 292 292
290 289 289 289 288 287 287 288 289 289 289 288 288 288 287 286 284 284 285 286 287 289 289 289 288 287 287 287 287 287 287 287 287 287 287 287 287 287 287 287 287 287 288 288 288 288 288 289 289 288 289 289 289 289 289 289 290 290 290 290 291 291 292 292 292 292 292 293 293 292 291 291 291 291
289 289 289 288 287 287 288 289 289 289 289 288 288 288 286 285 284 284 285 287 289 290 289 288 287 287 287 287 287 287 287 287 287 287 287 287 287 287 287 287 288 288 288 288 288 288 289 289 289 289 289 289 288 289 289 290 290 290 291 291 291 291 292 292 292 292 293 293 293 292 291 290 290 290
289 289 288 287 287 288 289 289 289 289 289 288 288 287 286 284 284 285 286 288 290 289 288 287 287 287 287 287 287 287 287 287 287 287 287 287 287 287 288 288 288 288 288 288 288 289 289 289 289 289 289 288 288 289 289 290 290 290 290 291 291 291 291 292 292 292 293 292 292 292 292 291 291 290
289 289 288 287 287 288 289 289 289 289 288 288 287 286 285 284 284 286 288 289 290 289 288 287 288 288 287 287 287 287 287 287 287 287 287 287 287 288 288 288 288 288 288 288 289 289 289 289 290 289 289 289 289 289 289 290 290 290 290 291 291 291 290 291 291 291 291 291 291 291 291 291 292 292
289 289 288 288 288 289 289 289 289 288 288 287 286 286 285 284 285 288 289 290 289 288 288 288 288 288 288 288 287 287 287 287 287 287 287 287 288 288 288 288 288 288 289 289 289 289 290 290 290 289 289 289 289 289 289 290 290 290 290 290 290 290 290 290 290 290 290 290 290 290 291 291 292 292
Wind_Speed
13 13 13 14 15 16 15 15 15 14 14 13 13 14 14 12 6 1 3 3 5 12 15 16 19 19 19 19 18 17 19 19 19 18 18 19 19 17 15 15 14 13 12 11 10 9 8 8 7 6 5 5 5 6 7 7 7 7 7 8 10 10 11 11 11 11 11 11 13 15 17 18 22 26
13 13 13 13 14 15 14 13 12 11 11 10 10 11 11 13 10 5 3 2 4 9 13 15 17 18 18 18 17 17 17 17 17 17 18 19 19 18 17 18 17 17 15 14 13 12 11 11 10 9 8 6 6 6 8 9 9 9 9 9 9 10 10 10 10 10 10 10 10 12 13 13 15 19
12 13 13 12 12 12 10 10 9 9 9 9 9 10 9 11 11 9 6 3 4 8 10 13 15 16 16 17 17 17 16 16 15 15 15 16 16 16 17 18 18 18 18 17 16 15 14 14 13 13 12 11 9 8 8 8 9 10 10 11 11 11 11 11 11 10 10 9 9 9 10 10 10 12
11 12 13 12 11 10 8 7 7 7 8 9 9 9 9 10 10 10 9 5 4 6 9 11 14 14 14 16 18 18 17 16 15 15 14 14 14 15 15 15 15 16 16 16 16 16 15 15 14 14 14 13 13 11 10 10 10 10 10 11 12 13 13 12 12 12 11 10 9 8 8 8 9 10
10 10 10 11 10 9 8 7 6 6 6 7 8 8 8 9 9 9 9 8 5 6 8 11 13 13 13 16 19 18 18 17 16 15 15 14 14 15 15 13 13 13 13 14 14 14 15 15 15 15 14 14 14 14 13 12 12 12 11 11 11 12 14 14 14 14 14 13 11 10 9 9 8 9
7 7 7 8 8 8 7 6 5 4 4 4 6 6 6 7 8 8 9 9 7 7 8 10 13 13 14 17 19 19 19 18 18 17 17 17 17 17 16 14 13 13 13 13 13 13 14 14 15 15 15 14 14 14 14 13 13 13 13 12 12 11 11 13 15 15 16 15 15 13 11 11 9 9
5 5 5 5 6 6 5 4 3 3 3 2 3 4 4 5 7 7 9 9 9 9 9 10 13 14 15 17 19 19 19 18 19 19 20 20 20 20 20 18 16 15 15 15 15 15 15 15 14 14 14 15 15 15 15 14 14 14 14 14 14 13 12 11 12 14 16 16 15 14 12 12 11 10
6 6 5 5 5 5 4 4 3 2 2 1 1 2 3 4 5 6 8 10 10 10 9 10 12 14 14 16 18 19 19 18 19 21 21 22 23 23 23 22 20 18 17 17 17 17 17 17 16 15 14 14 14 15 15 15 15 16 16 16 15 15 14 13 12 11 13 12 11 11 11 11 11 11
8 8 8 7 7 7 6 6 6 5 4 3 2 1 1 2 4 5 7 9 10 11 10 9 10 13 14 15 17 19 20 20 21 23 22 23 25 26 26 25 21 19 20 20 21 21 20 20 19 18 16 15 14 14 15 15 15 16 17 17 17 16 15 15 14 11 10 10 10 11 11 10 9 10
10 11 11 10 10 10 9 9 8 8 7 6 4 3 2 1 1 3 5 8 9 10 9 8 10 12 14 15 17 18 20 21 23 26 25 25 27 28 29 28 22 19 22 25 26 27 26 24 22 20 18 16 16 15 15 15 15 15 16 18 18 18 17 16 15 14 11 10 12 14 12 10 9 9
13 13 13 14 14 14 12 11 11 10 9 8 6 5 4 3 1 1 3 6 7 8 7 8 10 11 13 14 15 16 18 19 22 26 27 29 30 31 31 29 23 21 24 28 31 31 30 28 26 23 20 17 17 17 16 17 16 15 16 17 17 18 18 17 16 15 14 12 11 14 14 12 10 9
16 16 16 17 17 18 17 15 14 13 12 10 9 8 6 4 3 1 2 4 6 6 6 7 9 10 12 14 15 16 18 19 20 22 23 25 29 31 32 29 23 23 27 31 35 35 32 31 28 26 22 18 18 20 20 19 18 17 16 16 17 17 18 17 16 15 15 14 12 11 13 13 13 12
18 19 19 20 21 21 21 19 18 16 14 13 12 11 9 7 5 3 0 4 5 5 5 5 7 10 12 13 14 16 17 16 17 17 18 20 23 28 31 29 23 24 29 35 39 36 33 31 29 27 23 19 20 22 22 20 18 17 16 16 17 17 17 17 16 16 15 14 13 11 10 12 13 14
18 19 20 21 22 23 23 23 21 20 17 15 13 11 9 8 7 5 2 3 4 4 4 4 6 9 10 10 11 12 13 13 14 16 17 19 21 25 28 28 27 27 31 37 40 37 33 29 28 26 23 21 22 22 19 18 17 16 15 14 15 15 16 16 15 14 14 13 12 11 9 9 10 12
16 17 17 19 20 22 23 24 24 23 20 17 15 12 9 9 8 5 3 2 3 4 4 4 5 7 8 9 8 9 11 12 13 14 16 17 19 21 20 20 25 29 31 32 34 35 32 27 26 27 24 22 20 17 15 15 16 15 14 12 12 13 14 14 13 12 12 11 11 10 8 7 6 7
15 16 16 17 17 19 21 23 23 23 21 18 16 13 10 9 7 6 4 4 4 5 6 6 6 6 7 8 8 9 11 12 13 15 16 17 18 18 16 16 22 27 27 25 27 31 30 25 25 25 22 19 16 13 13 14 15 15 13 11 11 12 13 13 11 10 10 9 8 8 7 7 6 5
12 13 14 14 15 16 17 19 21 22 21 19 15 12 10 9 8 6 5 5 5 6 7 7 6 7 7 7 8 9 10 12 14 16 18 18 18 18 17 18 22 24 22 19 21 26 28 24 21 21 19 16 15 14 12 12 14 15 13 11 11 11 11 11 10 9 9 8 7 7 6 6 6 6
6 8 9 10 11 12 13 15 16 19 21 19 15 12 11 10 8 7 6 6 6 7 8 8 7 7 7 7 8 8 9 11 13 15 17 18 18 19 19 19 21 21 18 16 16 19 22 21 18 18 20 19 17 17 15 13 13 13 10 9 10 9 9 10 10 10 9 9 8 8 8 8 8 8
8 7 6 7 8 9 10 11 12 17 19 16 12 11 10 10 9 9 8 8 8 8 9 8 8 7 7 6 7 9 11 12 13 14 15 16 17 18 19 20 21 19 17 17 14 13 16 19 18 19 22 22 20 19 16 13 11 8 6 7 7 7 8 9 9 9 9 9 9 8 8 8 8 9
10 8 6 5 5 6 7 9 12 14 14 12 10 10 10 10 10 9 7 7 6 6 6 6 6 6 6 8 9 11 12 13 14 14 15 16 16 17 18 19 19 17 18 19 14 11 14 19 19 20 22 22 20 17 12 8 7 6 5 6 6 6 7 9 9 10 10 11 10 10 9 9 9 9
9 7 5 3 2 3 6 10 11 9 9 9 9 10 10 9 8 6 4 4 4 4 4 4 4 6 7 9 10 11 11 12 13 14 15 16 17 16 16 15 16 19 21 19 12 11 15 18 20 21 21 19 18 16 11 7 7 7 8 9 9 10 11 12 12 12 13 14 14 13 13 12 12 12
6 5 3 2 1 2 5 7 7 8 9 9 9 9 8 7 5 4 3 3 3 4 4 5 6 7 9 9 10 11 11 12 12 13 15 16 17 17 16 15 18 22 20 15 11 12 16 19 21 20 19 18 15 12 8 8 9 10 12 14 14 13 14 15 14 14 14 15 16 16 15 14 14 14
3 3 3 4 3 2 3 4 4 5 5 5 5 5 5 4 4 3 3 3 4 5 6 7 8 9 9 10 11 11 12 12 12 13 14 15 16 18 18 18 17 14 10 11 14 17 19 19 19 17 15 14 11 7 7 12 15 16 17 18 17 15 14 15 16 16 15 16 17 17 16 16 16 16
3 4 5 5 5 4 4 4 4 4 3 2 3 2 2 2 2 2 3 4 6 7 8 9 10 10 11 12 12 13 13 14 14 14 14 14 15 18 20 20 17 13 14 18 19 20 21 19 18 17 15 12 12 13 15 18 19 17 17 18 18 17 16 17 17 18 18 18 18 17 16 15 16 18
4 5 6 6 5 4 4 3 3 2 2 1 0 1 1 1 2 3 4 6 7 8 9 10 11 12 13 14 15 15 16 16 16 16 16 16 17 19 20 22 22 22 24 24 20 21 23 21 18 18 16 14 17 20 21 19 17 17 17 18 19 19 18 18 19 19 19 20 19 17 15 15 17 18
6 6 6 6 5 4 3 3 2 1 1 2 3 2 3 3 3 4 5 7 8 9 10 11 13 14 15 16 17 18 18 19 19 20 20 20 21 22 22 23 24 26 28 26 21 21 24 23 20 18 16 17 19 21 21 20 19 18 18 18 18 18 18 20 21 21 21 20 18 16 15 15 16 17
7 7 7 6 5 4 2 2 1 2 3 3 3 2 2 2 3 5 6 8 9 10 11 12 14 15 16 17 19 20 21 22 23 23 24 23 23 23 22 22 24 26 28 26 22 20 22 25 24 21 20 20 21 20 19 20 19 18 18 18 19 20 20 21 22 21 21 20 19 18 17 17 16 16
8 8 7 5 4 2 2 2 2 2 3 3 2 2 1 2 4 6 7 9 10 11 13 14 15 17 18 19 21 22 23 23 24 24 24 24 22 22 21 21 21 22 23 22 21 20 21 24 25 25 24 23 22 20 19 19 19 18 18 19 20 21 22 21 21 21 21 20 19 19 19 19 18 17
8 7 6 4 3 2 3 3 3 3 3 3 2 1 2 4 6 7 9 10 12 13 14 16 17 19 20 20 21 22 22 23 23 23 22 21 19 18 18 18 19 19 19 19 20 19 20 22 24 25 24 23 24 23 21 21 21 19 18 19 20 21 23 23 23 22 22 21 21 21 20 20 20 20
8 7 5 4 4 4 4 4 3 3 3 2 2 3 4 5 7 9 10 11 13 14 15 16 17 19 20 20 21 21 21 20 20 19 17 17 16 15 16 17 18 18 18 19 19 19 19 20 22 23 23 23 23 24 22 22 22 20 19 19 19 19 20 21 20 19 20 20 21 21 21 21 22 21
8 7 7 6 6 5 4 4 3 3 2 2 3 4 5 7 8 9 10 11 12 13 14 16 18 19 20 20 20 19 17 16 16 15 15 16 17 16 17 18 18 18 18 18 19 19 19 19 20 21 22 22 22 23 22 22 23 21 20 19 19 18 18 19 20 20 20 21 20 20 19 19 19 19
9 9 8 8 7 6 5 4 3 2 2 3 5 6 7 8 8 9 9 10 11 13 14 16 18 18 17 16 15 15 14 14 15 15 16 17 18 18 18 18 19 19 18 18 18 20 20 20 20 20 21 21 22 22 22 23 23 22 22 22 22 22 22 23 24 23 22 22 22 21 20 20 20 20
11 11 10 9 7 5 3 3 2 3 4 5 6 7 7 7 8 9 10 12 13 15 16 17 17 15 13 13 13 14 14 15 16 17 17 18 18 19 19 18 19 19 20 20 20 20 21 21 21 20 21 21 22 23 24 24 24 22 22 22 22 23 25 25 23 21 20 20 22 22 22 23 24 23
12 13 11 8 5 4 3 2 3 4 5 6 6 6 7 8 10 11 13 14 16 16 17 17 17 16 14 13 14 14 16 16 17 17 18 18 19 19 19 19 19 19 19 20 20 20 20 20 20 20 21 22 23 24 24 24 23 23 22 22 22 23 24 24 23 22 21 21 22 22 23 26 27 24
12 11 9 7 5 3 3 3 4 4 4 5 6 7 8 10 12 14 15 16 17 18 18 18 19 17 15 14 14 15 16 17 18 18 18 19 19 19 19 19 20 20 20 20 20 19 19 19 19 19 19 19 19 20 20 20 21 22 23 22 22 22 22 22 23 22 22 22 22 21 22 25 25 22
12 9 8 7 6 4 3 3 3 3 4 5 7 9 11 12 14 16 17 18 18 18 19 19 19 18 15 15 15 16 16 17 18 19 19 20 20 20 19 19 20 20 20 20 20 20 20 20 19 17 16 13 11 11 13 14 14 17 19 20 19 19 20 21 21 21 22 21 21 20 20 22 23 20
12 9 8 7 6 4 3 3 3 3 4 6 8 10 12 15 16 17 18 19 19 19 19 19 20 19 17 17 17 17 17 18 19 19 20 21 20 19 18 19 20 20 20 19 19 20 20 20 19 17 14 9 6 7 10 12 13 13 15 17 18 19 19 19 17 17 17 16 16 17 18 19 20 18
11 9 8 7 5 3 3 3 4 4 5 7 9 11 13 15 17 18 19 19 20 21 21 21 21 20 20 19 18 18 18 19 20 21 21 20 20 19 19 19 20 21 21 19 19 20 20 20 20 19 15 9 6 6 8 10 11 11 12 15 17 18 17 14 13 13 13 13 13 14 15 16 17 14
9 8 7 6 4 4 4 4 4 4 6 8 10 12 14 16 18 19 20 20 21 21 22 22 22 22 22 21 20 19 20 21 21 21 21 21 21 21 21 20 21 21 21 20 19 19 19 19 20 20 18 15 13 13 13 14 16 18 19 18 18 19 18 16 14 14 14 12 11 10 10 9 9 8
8 7 6 5 4 4 5 5 4 5 7 9 10 12 15 17 19 19 20 21 21 22 22 22 22 22 22 22 22 22 22 22 21 21 21 21 22 22 21 21 21 21 21 21 20 19 19 20 21 21 20 20 20 21 21 20 20 22 22 18 16 17 18 17 17 16 13 11 9 8 7 6 6 7
7 7 5 5 5 6 5 4 5 6 8 9 11 13 16 18 19 19 20 20 20 21 21 21 21 22 22 23 23 22 21 21 21 21 22 22 22 23 24 22 21 21 20 20 20 20 22 23 23 21 20 20 19 18 16 13 13 15 17 16 14 13 13 14 14 13 12 11 9 8 7 7 7 8
7 6 5 5 6 6 4 4 6 7 8 10 12 15 17 18 19 19 20 19 19 20 20 21 21 22 23 24 24 22 21 21 21 21 23 23 23 23 23 21 20 20 20 20 21 24 25 25 23 21 18 17 16 14 10 9 10 11 12 13 12 12 12 13 12 11 11 11 10 9 7 6 5 6
6 6 5 6 6 4 3 5 6 8 9 11 13 16 18 19 19 19 20 20 20 20 20 21 22 23 24 25 25 24 23 23 22 22 23 24 22 22 22 21 21 21 20 22 24 26 26 23 20 17 15 14 14 13 11 11 12 12 11 11 12 11 11 10 9 8 8 9 9 9 7 5 3 3
6 5 6 6 4 2 3 5 7 8 10 12 15 17 18 19 19 19 19 20 19 19 20 21 23 24 25 26 26 26 25 25 24 23 23 24 23 23 22 23 23 22 22 22 23 23 23 20 16 12 10 10 11 11 11 11 11 10 10 11 11 7 4 2 2 3 6 8 7 5 6 6 3 1
6 6 6 5 3 1 3 6 8 9 11 14 16 18 18 19 19 18 18 19 19 19 20 22 23 25 26 26 26 26 26 25 25 25 24 24 24 24 23 23 22 22 22 20 19 19 19 17 13 10 9 9 9 10 11 11 10 9 9 9 6 4 6 7 8 10 10 9 6 4 4 5 2 2
Wind_Direction
102 104 105 104 105 107 105 99 95 89 83 80 74 67 67 75 90 94 41 37 35 34 32 30 30 31 31 33 34 37 42 44 44 47 49 48 45 42 41 41 40 42 45 48 48 46 41 36 29 18 358 333 318 313 307 297 286 282 284 284 286 287 289 291 291 289 284 276 270 267 264 265 264 257
111 110 109 110 111 111 110 103 98 93 88 84 83 79 71 70 80 104 101 55 34 34 34 31 27 26 27 29 31 35 37 38 39 43 47 48 46 46 48 50 50 50 51 52 53 52 51 49 45 40 32 16 351 330 320 311 299 292 290 291 290 284 280 281 281 281 281 279 275 270 267 268 270 266
120 119 117 119 120 118 115 107 98 95 94 93 90 88 82 73 76 89 100 84 36 38 39 35 30 29 29 28 30 35 36 35 33 34 38 41 41 43 46 49 51 53 54 55 55 55 55 54 52 50 46 39 29 14 358 344 328 312 298 291 290 288 280 272 268 269 271 272 273 272 273 273 270 268
128 125 123 124 125 124 121 110 101 99 98 97 97 96 90 81 76 76 82 90 81 62 47 37 35 35 33 30 31 34 36 35 33 31 31 31 32 34 37 40 44 47 47 47 47 46 45 44 42 40 38 35 30 22 16 9 360 347 326 305 291 285 281 273 266 261 259 261 260 261 269 277 278 276
137 134 129 128 126 123 120 115 108 105 104 100 99 98 89 81 74 61 62 75 86 76 54 41 41 40 36 34 32 30 32 33 32 31 31 29 28 29 27 26 28 30 29 28 27 26 25 25 24 24 22 21 19 15 11 8 6 2 353 338 315 294 282 275 270 264 258 254 253 255 261 267 272 277
149 152 143 136 134 131 125 119 115 110 109 106 101 97 82 72 68 52 50 59 63 60 51 42 42 40 36 34 33 30 30 31 29 29 31 31 30 29 25 20 16 14 10 8 5 4 3 2 2 3 3 2 3 1 360 358 359 359 357 353 345 330 307 285 272 267 262 256 252 252 256 262 263 264
174 178 168 152 149 150 147 137 134 132 123 116 101 92 74 61 61 49 40 46 51 51 45 38 37 37 34 33 32 30 30 30 28 26 28 28 27 26 23 18 14 11 8 5 2 359 355 352 348 346 346 346 346 346 345 343 344 346 348 349 348 346 339 317 289 271 265 258 252 252 254 258 259 258
218 217 210 196 182 175 185 191 189 194 183 169 118 94 78 59 57 45 34 37 42 43 44 40 34 33 34 32 28 24 24 25 24 22 21 19 18 18 17 15 12 10 9 7 5 4 1 357 352 346 341 338 336 335 334 331 331 331 335 339 341 344 345 340 322 288 265 253 249 254 258 260 262 264
248 248 243 232 218 207 210 216 217 220 217 211 197 148 109 69 54 40 31 30 28 29 36 42 34 27 28 27 23 18 16 16 15 13 14 13 10 8 9 11 11 8 5 3 1 360 359 358 356 352 346 341 337 334 331 326 323 321 323 326 331 335 339 342 339 318 282 252 241 246 252 256 262 269
263 265 263 256 243 234 231 229 226 224 220 216 210 196 174 133 66 37 33 24 18 20 26 30 26 21 19 18 17 14 11 10 8 6 5 5 4 2 2 5 6 3 359 357 355 354 354 354 355 355 351 346 339 336 334 329 323 318 316 318 321 325 330 334 338 334 314 276 248 240 240 243 251 265
269 271 271 268 260 254 251 246 239 233 227 221 214 207 198 186 178 47 38 24 15 18 23 18 14 14 12 10 11 11 9 8 6 4 1 356 355 356 357 358 359 356 352 350 349 349 349 350 351 353 354 349 339 336 336 333 328 321 314 313 315 317 320 323 328 332 329 311 274 249 239 234 236 244
270 270 270 270 267 262 259 254 249 243 237 228 217 211 210 208 208 172 47 22 12 11 14 9 1 1 2 1 1 3 5 7 6 4 359 352 349 349 350 352 353 348 346 344 343 344 345 345 346 348 351 348 338 335 337 336 330 324 317 314 313 314 314 315 317 320 324 325 311 277 249 237 232 231
269 268 268 269 270 267 263 257 252 247 242 238 230 220 215 217 220 209 248 1 358 354 354 353 346 345 349 354 355 354 359 2 358 354 352 349 346 343 343 347 348 344 341 339 338 340 343 343 342 346 350 346 336 335 338 338 333 328 323 320 318 318 316 313 311 311 312 316 319 310 277 250 239 233
264 263 263 264 267 269 264 257 252 246 240 238 237 232 226 226 226 216 223 336 334 323 323 327 330 331 335 343 348 345 346 347 343 343 346 345 343 342 342 342 340 339 339 337 335 336 339 341 340 343 346 340 335 337 341 341 337 334 331 329 329 328 324 319 313 308 305 303 306 310 302 277 255 244
268 265 264 264 266 269 267 259 251 243 237 233 229 226 229 232 231 228 240 286 289 278 279 289 300 307 312 322 329 328 329 332 335 339 341 340 340 343 343 334 329 333 337 336 332 330 335 340 339 339 343 342 340 345 349 347 343 338 336 339 342 338 332 326 319 310 303 295 292 293 295 291 273 258
277 276 274 272 268 268 269 264 253 241 232 226 220 219 223 224 226 236 253 262 258 251 253 265 275 280 289 300 307 311 319 325 329 332 333 335 336 335 331 318 316 326 335 335 330 327 330 338 339 338 346 352 352 352 349 347 347 344 342 347 352 350 344 338 333 326 317 307 300 295 290 287 277 266
285 286 285 282 278 274 271 267 257 240 223 213 209 211 213 213 219 233 251 264 266 257 256 265 269 267 273 284 292 302 311 319 324 325 326 329 328 325 322 315 315 325 334 337 330 323 325 336 341 341 347 352 350 345 338 339 346 348 347 352 1 4 360 356 356 353 347 340 333 325 317 308 296 279
327 316 306 298 294 287 278 271 254 228 210 202 201 205 209 216 226 235 246 257 257 254 256 263 264 263 270 277 287 299 308 316 321 322 322 324 323 320 317 314 316 323 332 339 331 315 320 336 343 338 337 336 334 330 324 321 331 340 347 357 6 10 7 5 6 4 0 356 348 338 328 320 311 302
7 358 340 321 308 294 280 263 230 205 199 200 204 208 215 225 231 235 242 247 249 251 255 261 265 268 277 285 295 307 315 320 321 321 320 321 320 317 313 313 316 320 328 338 329 301 312 333 335 330 333 332 328 328 326 319 317 322 335 349 359 5 1 357 354 353 353 352 350 346 338 328 320 311
12 8 357 338 317 289 252 210 192 193 199 206 213 218 223 230 233 235 240 243 249 254 255 261 268 273 287 300 308 315 318 321 322 320 319 320 318 315 311 312 314 318 326 333 325 294 306 328 327 323 330 332 329 332 336 328 316 304 299 311 329 346 350 346 341 336 339 343 345 347 349 347 344 339
13 11 4 356 329 254 207 188 188 200 206 211 224 229 227 228 230 232 237 245 253 259 266 277 287 295 303 307 312 317 320 322 323 320 317 319 318 312 308 307 307 311 318 325 322 295 303 321 323 319 323 326 325 326 326 316 312 307 298 300 314 324 324 326 327 325 325 330 331 332 336 334 328 328
17 24 33 47 76 202 196 195 206 213 214 223 237 236 226 221 219 216 227 250 266 279 292 301 307 309 310 310 312 316 319 320 320 317 314 315 314 308 303 299 302 307 311 318 320 303 303 316 321 318 319 318 315 317 318 310 307 304 302 303 307 311 311 310 313 312 312 315 316 318 324 325 321 319
47 62 82 92 105 152 169 177 188 193 204 219 222 218 212 202 196 207 234 269 289 297 302 308 312 312 312 313 313 313 313 313 312 310 308 309 310 308 305 302 303 304 303 311 316 307 303 310 315 316 318 316 311 308 305 305 307 305 303 304 302 301 302 301 302 301 299 300 301 304 310 316 319 320
112 118 117 111 112 121 128 134 141 144 154 169 169 182 203 195 200 251 287 300 306 310 313 314 315 314 312 311 310 308 307 308 308 307 306 305 306 307 306 304 299 287 285 300 311 307 302 304 306 306 305 298 295 297 297 300 305 305 302 301 299 298 296 294 295 294 292 291 289 290 298 307 311 315
140 139 136 132 130 131 130 130 131 131 134 144 202 295 307 308 308 310 313 316 317 318 317 316 315 313 311 309 309 309 309 311 312 311 308 305 302 300 299 299 295 288 288 296 304 304 299 297 296 298 295 283 283 292 296 296 297 297 297 295 294 294 291 289 290 289 290 291 286 278 285 298 303 305
151 148 150 150 148 147 143 132 113 78 33 359 348 348 345 337 328 320 317 318 318 318 317 316 315 314 314 313 314 314 315 315 316 314 310 306 301 295 291 289 288 287 288 292 296 296 293 291 290 290 289 286 286 290 293 293 292 295 297 295 292 291 288 287 287 287 288 292 285 273 274 286 294 295
159 156 157 154 150 148 135 101 49 19 8 359 359 1 345 326 317 316 316 317 318 319 319 319 318 318 319 319 319 319 318 317 316 313 309 305 300 293 288 285 283 283 286 289 289 285 283 285 286 284 283 286 288 288 288 290 292 293 294 292 291 292 290 287 286 286 288 289 285 276 273 277 284 288
163 162 159 153 147 133 91 63 48 45 44 43 49 47 2 332 322 320 321 322 322 323 323 322 322 322 322 322 321 319 317 315 313 311 308 305 301 295 291 289 288 287 289 289 285 279 276 278 280 280 279 280 282 284 286 287 289 289 290 291 291 292 292 289 284 283 284 284 282 278 274 272 275 279
161 161 156 147 132 111 95 93 91 85 84 83 73 33 336 326 322 321 325 327 328 329 328 326 325 323 322 321 318 316 314 312 311 311 310 309 308 304 300 299 298 297 296 293 288 282 277 276 277 277 276 274 276 279 283 285 286 285 285 286 287 288 289 289 285 282 280 277 276 274 271 269 270 272
159 153 148 143 134 126 119 113 106 96 88 70 13 341 332 329 329 331 334 335 334 332 330 327 324 322 321 319 317 316 314 313 313 314 312 311 311 310 308 306 302 299 299 297 293 288 282 280 279 278 276 276 276 278 280 282 283 282 280 278 280 283 285 287 286 281 277 276 275 274 272 271 271 272
156 150 146 144 140 133 123 110 96 87 72 24 356 352 348 343 343 341 338 336 336 334 332 329 327 325 324 321 320 319 318 315 315 314 311 309 307 308 308 306 300 297 297 296 296 294 289 286 284 281 279 279 278 278 278 278 278 278 276 273 272 273 275 278 279 276 275 275 274 272 272 272 272 273
150 149 146 142 136 130 121 111 91 69 43 14 3 358 353 348 346 344 342 341 340 339 338 335 332 329 326 323 321 321 317 313 313 313 311 308 306 306 307 303 299 299 299 298 297 298 297 295 291 286 282 280 279 280 279 276 275 275 276 276 276 276 276 275 274 274 275 272 269 269 270 270 272 274
150 149 147 144 141 133 119 101 71 36 19 11 4 359 357 357 356 355 353 350 346 344 341 337 332 330 326 321 319 318 314 310 310 312 312 310 308 308 305 299 296 298 298 297 298 298 299 298 295 291 286 282 280 279 276 273 274 275 275 276 277 277 278 276 273 275 277 271 267 268 269 270 274 276
154 153 149 144 140 128 102 76 51 30 16 11 12 13 14 9 3 359 356 351 346 344 340 336 332 329 322 316 314 315 313 311 311 311 312 311 309 307 303 298 296 296 294 295 296 296 296 296 294 292 288 285 283 280 273 269 271 274 274 271 269 270 274 275 273 274 274 269 265 265 267 271 275 276
156 156 150 139 131 120 100 76 51 35 26 27 26 20 14 8 1 357 353 350 346 342 340 336 332 327 319 312 311 312 311 312 312 312 311 310 307 303 299 295 294 293 293 292 292 292 294 294 291 289 287 286 285 284 278 271 267 266 266 267 267 267 270 272 273 273 272 268 265 263 265 269 274 275
150 151 149 141 135 125 101 76 58 52 52 42 26 12 3 360 357 354 351 348 345 342 339 335 330 326 321 315 314 313 313 313 313 312 311 309 305 302 297 292 289 290 290 289 289 291 293 291 288 286 286 287 285 284 284 281 272 266 265 267 270 271 272 276 278 275 272 271 268 262 260 264 271 276
145 146 146 141 136 126 102 88 87 79 57 33 16 6 359 354 353 352 351 348 345 342 339 335 330 328 325 322 319 318 318 317 315 311 309 308 305 301 296 292 291 291 290 288 289 291 290 287 283 279 278 282 284 279 282 284 279 272 268 267 269 274 278 281 282 279 277 277 273 266 262 263 269 273
148 147 145 140 136 127 114 111 105 79 43 19 7 1 356 352 351 352 352 350 348 345 342 338 335 333 330 327 325 323 321 320 316 312 309 307 304 300 296 295 294 294 293 291 290 289 287 283 279 274 270 270 275 276 283 285 278 271 272 276 281 287 289 287 285 289 293 292 284 275 270 267 266 266
147 147 146 142 137 130 127 119 97 56 23 8 1 356 352 350 351 353 354 353 350 347 344 341 338 336 333 331 329 326 322 318 314 309 306 304 302 300 298 296 295 296 296 294 292 291 287 281 276 272 265 261 263 269 275 280 280 280 282 284 287 290 291 289 289 294 299 299 288 275 267 258 251 243
144 144 144 140 136 136 131 109 66 27 7 358 354 352 350 350 352 355 355 353 350 347 345 342 339 336 334 333 331 328 323 317 312 308 305 304 303 302 300 297 295 296 295 293 292 291 287 282 281 279 273 270 272 276 277 277 279 283 285 286 286 284 283 284 285 285 288 290 278 257 236 214 195 187
148 146 142 139 138 134 118 81 31 5 356 351 347 348 350 352 355 357 355 352 349 347 344 341 337 335 334 334 332 328 320 315 311 309 308 308 306 304 302 298 294 292 290 288 287 288 290 292 293 292 286 281 278 277 276 273 273 278 284 290 294 289 281 278 276 271 272 272 257 225 198 188 180 173
150 147 143 139 137 127 96 42 7 354 349 345 344 347 351 354 357 357 353 351 351 349 344 340 337 336 336 335 333 327 320 315 313 312 311 309 305 303 302 298 293 291 288 285 286 290 296 301 302 297 290 281 270 261 258 261 267 276 284 289 292 290 285 281 274 266 264 262 246 216 187 173 170 171
150 147 142 141 137 120 59 13 358 349 342 341 345 350 353 355 357 356 353 352 353 351 345 341 339 337 336 336 333 330 325 320 316 313 311 308 305 302 301 299 297 295 292 290 293 297 302 306 306 300 288 273 259 250 249 257 266 272 278 284 288 289 287 285 277 262 244 232 230 230 217 190 161 181
150 148 146 148 145 111 20 359 350 343 340 343 348 352 354 354 356 356 354 352 353 351 346 342 341 340 339 337 335 332 330 325 320 316 312 311 310 307 304 303 303 302 299 297 298 301 305 308 309 303 285 264 252 247 246 253 263 267 272 281 284 275 250 212 177 177 176 176 186 213 214 192 158 81
155 158 157 159 159 63 4 349 343 342 343 346 350 352 354 355 356 356 354 352 352 351 347 345 345 343 342 341 336 332 330 328 325 322 319 318 316 313 311 310 308 306 305 303 300 301 305 307 306 299 282 264 255 251 249 252 260 266 271 276 265 201 155 135 125 120 115 115 119 128 172 193 181 81